NOAA 16 DEB, 41164

Orbit data source: Space-Track

NOAA 16 DEB, 41164 is space debris in SSO originally from a launch on Thu, 21 Sep 2000 UTC launched from the Air Force Western Test Range (AFWTR). Debris objects in space refer to the collection of defunct objects orbiting the Earth. Examples of debris include non-operational satellites, rocket bodies, and fragments generated from explosions, collisions, or faulty payload assembly.

Loading next visibility...
Identifier
41164, 2000-055CX
Orbit
SSO
Country
Flag of USUS
Related business
Manufacturer
Unknown
Mission
Spacecraft
Bus & Motor
Unknown
Mass
Unknown
Launch date (UTC)
2000-09-21 (25 years ago)
Launch vehicle
Unknown
Launch site
Air Force Western Test Range (AFWTR)
Object type
Payload
Rocket body
Debris
Shape & HBR
Unknown shape, 0.1 m
Radar Cross Section
Small (<0.1 m²)

Expand to show TLE details & history
Last TLE update: 22 hours ago

TLE from 22 hours ago
0 NOAA 16 DEB
1 41164U 00055CX  25290.46966450  .00006687  00000-0  32300-2 0  9991
2 41164  98.9735   5.2136 0054828   3.4069 356.7469 14.18105944505620
Epoch: 2025-10-17T11:16Z
TLE epoch observation values (Epoch: 2025-10-17T11:16:19.012Z)
Latitude
0.00002°
Longitude
169.9198°
Altitude
795.195 km
Speed
7.476 km/s
True Right ascension
00h 20m 51s
True Declination
0° 00' 00"
Sunlit
Object was in full shadow at epoch
Visualization orbit readout
Latitude
Unknown
Longitude
Unknown
Altitude
Unknown
Speed
Unknown
Apparent Right ascension
Unknown
Apparent Declination
Unknown
Sunlit
N/A
Visualization observer readout
Local Sidereal Time
04:29:09
Azimuth
Unknown
Elevation
Unknown
Doppler factor
Unknown
Orbital elements
Apogee altitude
868.454 km
Perigee altitude
789.424 km
Semi-major axis
7,207.076 km
Eccentricity
0.00548
Inclination
98.9735°
RAAN
5.2136°
Arg. of periapsis
3.4069°
True anomaly
356.711°
Mean anomaly
356.7469°
Eccentric anomaly
356.72898°
Mean motion
3.54735 °/min
Orbital period
101.48 mins
BSTAR
0.00323
Loading maneuver chart data...
Computing Atmospheric mass density...
Loading historical data...
Loading historical data...
Loading historical data...
Loading historical data...
Loading historical data...
Loading historical data...
Loading historical data...

Documentation

Showing up to 5 results
|